Location: Sungai Kamana Besar
(2.6333°N, 113.4333°E)
Time: 06:03:51
(UTC+00:00)

Cosmos 1190 Rocket - Pass Details

Date: 29 May 2022
Orbit: 756 x 780 km, 74.1° (Epoch: 26 June)

Event Time Altitude Azimuth Distance (km) Brightness Sun altitude
Rises 20:31:43 0° 340° (NNW) 3,247 7.3 -24.8°
Reaches altitude 10° 20:34:07 10° 337° (NNW) 2,323 6.5 -24.2°
Maximum altitude 20:39:18 59° 258° (WSW) 898 4.0 -23.0°
Enters shadow 20:39:55 55° 228° (SW) 934 4.0 -22.9°
